GFSMW_con_mucape_072.txt.gz
CAPE
272 57 0 0 0 0 12 19 13 20 21 4 1 0 5 5 20 62 67 100 101 56 45 28 15 3 0 0 0 0 0 0 0 0 0 0 0 0 0 0 0 0 0
369 53 0 0 0 0 0 0 0 0 1 5 3 0 3 0 12 8 6 1 6 37 29 16 22 1 0 0 0 0 0 0 2 0 7 0 0 0 0 0 0 0 0
340 65 16 0 0 0 0 0 0 0 0 0 0 0 0 0 0 0 0 0 7 3 35 52 47 43 29 9 0 0 2 3 16 13 23 2 0 0 0 0 1 0 0
284 144 29 13 0 0 0 0 0 0 0 0 0 0 0 0 0 0 0 0 18 19 15 38 25 47 34 33 23 43 35 18 37 18 10 0 0 0 0 1 6 0 0
283 209 110 82 0 0 0 0 0 0 0 0 0 0 0 0 0 0 0 0 10 49 45 75 81 90 115 112 116 92 35 36 23 15 3 4 1 2 0 0 0 0 0
280 227 150 148 50 0 0 0 0 0 0 0 0 0 0 0 0 0 0 0 12 44 115 110 152 185 251 193 200 102 63 46 19 14 18 8 21 11 1 0 0 0 0
305 238 187 193 164 0 0 0 0 0 0 0 0 0 0 0 0 0 0 0 14 100 133 179 243 276 317 205 201 129 96 73 45 29 17 20 19 1 10 0 0 0 0
354 282 231 227 219 246 0 0 0 0 0 0 0 1 15 0 11 20 16 0 0 35 131 232 314 335 264 208 136 112 92 71 40 34 13 19 7 0 2 0 0 0 0
327 325 269 258 255 263 292 5 0 0 0 0 2 3 2 53 77 99 58 59 78 48 150 233 345 292 234 108 98 155 114 57 32 73 13 12 7 1 18 0 0 1 0
241 292 308 299 295 297 321 360 238 88 2 0 0 41 71 90 112 78 112 108 65 62 114 149 179 296 235 130 152 124 61 66 39 8 0 1 1 11 8 0 1 0 0
100 205 280 312 306 333 342 380 404 370 275 156 65 46 110 123 113 91 48 82 80 61 40 73 70 220 228 107 118 148 61 84 21 14 0 7 4 11 4 1 0 0 0
54 97 184 245 317 317 361 318 372 404 302 221 129 77 71 88 152 191 132 131 72 1 19 164 201 260 147 264 250 43 80 57 7 20 3 25 4 13 12 5 0 0 0
0 9 58 123 240 299 327 382 417 389 264 243 299 392 267 154 194 136 232 223 42 4 31 194 241 315 230 280 155 108 33 7 15 12 5 1 14 16 5 0 0 0 0
0 7 70 172 301 438 508 556 572 575 502 516 357 197 437 514 347 316 259 167 75 126 312 318 440 191 94 126 90 91 31 7 6 23 7 16 9 0 0 0 0 0 0
20 19 38 374 485 570 621 700 714 728 740 716 434 118 81 121 254 261 228 204 192 288 194 300 130 92 118 104 51 38 7 11 11 19 12 4 0 0 0 0 0 0 0
2 43 72 354 287 459 784 823 865 905 920 823 614 183 101 235 316 145 117 173 154 193 79 96 75 117 92 19 2 5 10 13 17 4 0 0 0 0 0 0 0 0 0
6 30 78 198 257 242 313 629 849 901 843 704 455 129 367 549 259 111 35 108 49 61 45 36 15 2 2 2 3 3 4 2 0 0 0 0 0 0 0 0 0 0 0
64 125 171 178 247 262 288 325 437 472 446 351 199 159 145 158 139 77 34 43 28 9 12 1 3 5 3 0 0 0 0 0 0 0 0 0 0 0 0 0 0 0 0
68 191 246 316 334 380 443 527 567 524 477 357 130 225 177 96 11 19 3 2 1 0 0 0 0 0 0 0 0 0 0 0 0 0 0 0 0 0 0 0 0 0 0
131 119 180 345 429 475 621 681 645 536 370 0 3 0 0 0 0 0 0 0 0 0 0 0 0 0 0 0 0 0 0 0 0 0 0 0 0 0 0 0 0 0 0
173 243 386 493 593 601 547 430 184 10 0 0 0 0 0 0 0 0 0 0 0 0 0 0 0 0 0 0 0 0 0 0 0 0 0 0 0 0 0 0 0 0 0
119 159 147 125 111 81 25 0 0 0 0 0 0 0 0 0 0 0 0 0 0 0 0 0 0 0 0 0 0 0 0 0 0 0 0 0 0 0 0 0 0 0 0
59 71 51 10 0 0 0 0 0 0 0 0 0 0 0 0 0 0 0 0 0 0 0 0 0 0 0 0 0 0 0 0 0 0 0 0 0 0 0 0 0 0 0
15 16 1 0 0 0 0 0 0 0 0 0 0 0 0 0 0 0 0 0 0 0 0 0 0 0 0 0 0 0 0 0 0 0 0 0 0 0 0 0 0 0 0
6 0 0 0 0 0 0 0 0 0 0 0 0 0 0 0 0 0 0 0 0 0 0 0 0 0 0 0 0 0 0 0 0 0 0 0 0 0 0 0 0 0 0
10 0 0 0 0 0 0 0 0 0 0 0 0 0 0 0 0 0 0 5 0 0 0 0 0 0 0 0 0 0 0 0 0 0 0 0 0 0 0 0 0 0 0

GFSMW_con_mucape_075.txt.gz
CAPE
121 106 40 0 1 5 10 0 1 3 0 0 18 27 15 56 59 81 68 30 6 0 0 0 0 0 0 6 8 13 28 20 0 0 0 0 0 0 0 0 0 0 0
230 230 17 0 0 0 0 0 0 5 13 8 4 3 41 69 61 88 65 38 46 13 1 28 10 20 23 7 0 0 3 1 0 2 9 10 1 0 0 0 0 1 0
232 299 33 0 0 0 0 0 0 0 13 15 8 7 28 86 54 66 55 63 32 70 77 55 43 52 39 13 0 0 4 13 15 19 21 22 2 0 0 2 7 5 4
70 274 96 0 0 0 0 0 0 0 0 1 0 3 0 0 0 0 0 1 8 32 57 97 71 77 33 22 13 12 18 34 43 34 35 16 13 21 0 9 0 5 6
50 211 191 21 0 0 0 0 0 0 0 0 0 0 0 0 0 0 0 0 0 16 22 34 59 57 49 55 35 53 34 55 61 52 21 18 10 16 18 7 1 9 3
50 105 193 90 12 0 0 0 0 0 0 0 0 0 0 0 0 0 0 0 0 0 32 56 55 66 99 116 76 91 98 99 88 62 28 23 23 1 12 4 12 5 0
110 109 156 178 34 10 0 0 0 0 0 0 0 0 0 0 0 0 1 0 0 0 5 43 73 67 64 99 119 163 177 144 109 88 55 36 22 5 7 14 1 0 2
112 156 201 205 40 56 4 0 0 0 0 0 0 0 0 0 0 0 10 8 6 2 6 34 29 61 82 122 163 279 248 122 78 99 85 45 7 11 12 14 0 0 0
145 206 258 208 141 94 116 8 0 0 0 0 0 0 0 0 1 23 25 12 1 2 2 53 66 111 129 168 257 127 112 76 99 82 34 41 42 16 0 9 31 0 5
191 247 262 275 210 146 164 154 92 2 0 0 0 0 0 0 8 7 0 1 10 42 47 73 81 108 130 133 171 116 126 96 100 122 69 24 11 5 2 10 17 12 8
126 209 286 304 251 196 199 185 194 199 41 7 0 0 0 0 6 9 8 43 48 59 100 121 84 69 8 9 115 119 164 126 138 77 55 14 13 0 1 1 3 1 0
55 98 205 308 271 273 288 294 271 253 209 129 45 2 0 0 0 2 36 70 11 31 58 48 49 17 0 11 50 79 164 140 89 53 35 22 7 1 5 12 6 0 6
24 62 138 237 229 270 323 339 338 309 263 246 255 75 45 58 35 42 56 54 47 34 39 2 5 61 53 176 195 144 205 116 60 31 24 17 1 12 12 6 10 7 1
30 46 76 107 135 172 252 294 323 355 346 308 280 273 147 152 118 131 167 190 72 108 21 82 80 56 69 61 161 257 116 121 62 28 13 4 19 15 12 8 7 11 0
0 14 55 78 112 136 136 167 240 347 414 440 416 391 315 212 192 273 369 382 254 166 155 118 51 91 179 278 217 115 93 54 54 21 12 4 2 10 13 7 1 0 0
5 5 76 89 102 118 135 145 251 366 472 567 541 510 399 456 318 438 339 539 586 312 392 238 131 250 190 201 108 57 53 45 32 10 7 8 11 13 4 5 1 0 0
3 1 20 80 127 164 179 219 291 362 474 591 578 499 530 210 124 117 179 214 246 206 146 158 223 221 79 84 80 50 80 17 4 14 12 15 5 0 2 0 0 0 0
5 3 19 42 118 145 172 316 387 437 531 646 649 610 406 174 120 156 310 218 157 83 83 161 138 115 69 20 15 6 4 11 8 10 10 2 2 0 0 0 0 0 0
4 12 10 57 105 106 119 237 383 588 650 572 308 179 143 68 9 115 173 131 135 46 51 56 31 21 10 4 1 2 4 3 1 3 1 0 0 0 0 0 0 0 0
17 37 55 50 60 87 138 192 272 342 394 442 526 339 20 12 56 119 80 11 9 7 6 3 2 7 2 4 0 0 0 0 0 0 0 0 0 0 0 0 0 0 0
32 95 93 105 155 184 204 266 364 501 544 477 179 2 2 3 2 2 3 4 1 2 0 0 0 0 0 0 0 0 0 0 0 0 0 0 0 0 0 0 0 0 0
57 73 83 122 162 220 302 397 395 255 56 0 0 0 3 2 1 0 0 0 0 0 0 0 0 0 0 0 0 0 0 0 0 0 0 0 0 0 0 0 0 0 0
93 109 156 232 305 300 212 93 3 0 0 0 1 2 0 0 0 0 0 0 0 0 0 0 0 0 0 0 0 0 0 0 0 0 0 0 0 0 0 0 0 0 0
102 137 164 133 96 52 11 0 0 0 0 0 0 0 0 0 0 0 0 0 0 0 0 0 0 0 0 0 0 0 0 0 0 0 0 0 0 0 0 0 0 0 0
109 86 69 28 3 2 5 1 0 0 0 0 0 0 0 0 0 0 0 0 0 0 0 0 1 0 0 0 0 0 0 0 0 0 0 0 0 0 0 0 0 0 0
25 20 9 2 0 0 0 0 1 0 0 0 0 4 0 0 0 0 0 0 0 0 0 0 0 0 0 0 0 0 0 0 0 0 0 0 0 0 0 0 0 0 0

GFSMW_con_mucape_078.txt.gz
CAPE
61 49 24 6 10 6 7 10 10 27 1 3 9 18 0 0 44 36 51 90 4 0 0 0 0 0 0 10 11 18 22 12 0 0 0 0 0 0 0 0 0 0 0
188 91 87 29 2 2 2 0 11 6 5 15 6 2 3 0 10 65 48 57 0 0 0 0 0 0 0 1 3 2 11 17 9 0 0 0 0 3 5 8 19 5 5
269 242 149 56 2 2 5 3 1 13 4 5 4 6 16 33 55 80 87 74 37 34 5 0 0 7 4 7 5 0 4 7 6 4 1 3 1 0 0 6 1 0 14
262 297 210 100 0 0 1 1 1 2 11 6 2 4 5 4 0 42 94 71 71 70 21 8 19 64 37 16 19 11 4 2 0 11 21 9 6 15 1 0 2 2 5
66 192 209 154 0 0 0 0 0 0 0 4 8 6 0 2 4 24 43 64 68 41 60 75 87 84 67 63 57 25 3 2 2 11 15 12 19 1 41 41 0 0 0
0 55 118 205 42 0 0 0 0 0 0 0 0 0 0 0 0 0 0 0 6 19 38 43 69 101 97 64 72 74 40 37 10 16 26 18 28 28 32 11 1 0 5
0 0 83 195 124 12 0 0 0 0 0 0 0 0 0 0 0 0 0 0 0 0 3 17 35 44 49 54 69 76 65 58 53 62 59 30 22 49 42 10 8 6 6
0 0 82 161 184 86 0 0 0 0 0 0 0 0 0 0 0 0 0 0 0 0 0 0 0 8 13 17 29 24 37 87 86 62 110 80 68 79 31 23 17 16 13
0 2 35 162 192 170 74 2 0 0 0 0 0 0 0 0 0 0 0 0 0 0 0 0 0 0 0 0 0 11 21 49 91 0 37 92 88 66 49 18 1 1 0
0 2 17 117 197 225 114 68 58 2 0 0 0 0 0 0 0 0 0 0 0 1 10 1 0 0 0 1 39 47 38 36 101 95 56 79 74 50 27 4 0 2 0
2 15 28 63 160 257 244 142 133 130 54 0 0 0 0 0 0 0 0 0 0 0 1 0 1 39 68 92 53 34 32 22 96 82 90 32 37 32 8 8 5 7 1
0 9 53 94 137 166 263 271 198 164 174 175 36 0 4 0 0 0 0 0 0 0 12 35 52 43 32 44 66 29 28 9 7 31 108 117 9 18 16 4 14 3 4
0 4 37 60 80 116 173 229 221 252 239 212 162 62 24 2 0 11 0 1 1 13 20 52 47 44 21 21 6 12 1 6 27 83 115 66 78 26 12 0 0 4 17
0 6 39 64 68 98 129 152 150 167 205 236 244 228 107 37 29 24 31 41 44 40 44 62 104 97 107 24 22 56 80 60 123 121 117 60 32 16 15 28 1 6 13
0 26 28 52 83 93 109 121 115 135 137 137 185 243 202 136 101 93 74 106 123 132 157 139 180 132 164 74 134 65 72 48 113 117 103 54 9 17 2 7 12 2 11
20 22 37 36 61 56 78 93 102 97 98 105 135 204 304 287 188 126 153 181 159 154 187 320 318 161 103 106 152 62 108 119 86 42 18 23 18 13 2 0 6 7 3
28 20 2 17 43 63 59 72 81 94 109 130 164 244 343 324 289 244 254 356 509 206 95 190 333 327 347 390 155 104 90 49 36 34 26 22 4 0 4 11 5 5 1
13 26 34 6 50 80 100 99 86 98 136 186 246 341 424 400 361 257 298 140 60 28 132 39 131 183 89 70 55 47 75 112 61 25 11 7 4 10 17 13 7 1 0
5 20 3 0 9 74 105 122 129 159 231 298 377 481 535 349 191 223 46 28 61 98 66 41 69 28 59 42 37 41 43 13 9 6 7 3 6 6 10 7 1 0 0
0 1 3 9 23 60 118 115 138 191 287 376 457 528 277 267 172 53 9 134 44 29 37 29 47 19 25 6 1 4 6 1 2 0 0 0 0 0 0 0 0 0 0
0 0 3 9 20 61 71 79 118 181 240 267 298 248 170 73 14 12 3 18 30 28 20 19 7 11 9 3 2 0 0 0 0 0 0 0 0 0 0 0 0 0 0
0 0 7 20 36 53 68 112 160 203 272 347 182 49 2 4 6 5 3 4 5 5 3 7 4 2 0 0 0 0 0 0 0 0 0 0 0 0 0 0 0 0 0
0 29 53 65 79 150 176 198 277 310 189 38 0 0 0 3 1 1 1 2 3 0 4 0 0 0 0 0 0 0 0 0 0 0 0 0 0 0 0 0 0 0 0
40 88 98 106 153 244 275 172 46 0 0 0 0 0 0 0 0 0 0 0 0 0 0 0 0 0 0 0 0 0 0 0 0 0 0 0 0 0 0 0 0 0 0
96 169 203 179 129 93 28 2 0 0 0 0 0 0 0 0 0 0 0 0 0 0 0 0 0 0 0 0 0 0 0 0 0 0 0 0 0 0 0 0 0 0 0
50 56 62 37 5 1 10 6 0 0 0 0 3 3 0 0 0 0 0 0 0 0 0 0 0 0 0 0 0 0 0 0 0 0 0 0 0 0 0 0 0 0 0

GFSMW_con_mucape_084.txt.gz
CAPE
190 300 3 0 0 14 5 0 8 26 12 7 6 2 4 0 0 38 39 34 12 8 15 17 1 4 2 0 0 1 3 1 1 0 0 26 19 10 0 0 0 0 0
357 316 27 13 1 14 9 0 31 0 14 5 6 12 6 1 0 41 58 42 13 0 13 20 0 3 0 6 15 8 15 18 13 3 13 20 8 21 15 5 2 0 0
522 435 211 46 59 19 21 4 0 1 4 3 5 2 8 8 0 107 52 56 47 10 17 8 17 22 77 62 39 5 13 10 4 9 21 117 120 72 1 3 1 0 6
350 583 375 150 98 15 16 19 1 0 2 1 7 0 0 0 0 1 54 63 100 92 25 32 38 90 58 55 80 36 38 29 47 0 2 25 119 130 102 2 2 8 2
367 694 518 272 173 7 9 20 0 4 7 8 5 3 0 0 62 3 0 0 112 116 56 54 57 89 65 78 102 77 94 66 99 112 109 9 4 9 70 102 26 0 2
292 628 597 302 223 3 2 21 0 9 1 9 8 2 0 0 0 3 1 0 81 107 135 76 84 90 78 86 154 182 162 128 141 144 137 146 103 80 69 74 70 64 26
161 552 685 504 193 1 5 4 3 5 0 0 0 2 1 4 0 5 9 3 52 56 135 144 62 82 98 131 217 290 320 307 252 220 201 214 199 166 21 16 13 2 0
125 467 669 652 191 43 1 3 4 6 0 0 27 42 36 12 11 2 0 59 94 115 117 198 223 230 240 280 342 400 433 378 354 352 351 333 302 43 4 20 45 7 3
78 327 561 597 306 146 11 4 5 9 6 3 12 22 38 45 80 42 27 78 140 80 162 188 247 274 351 406 392 356 345 476 480 509 383 295 257 242 98 77 58 55 0
19 246 462 590 417 204 36 3 5 28 56 48 17 17 17 23 27 56 59 81 127 96 94 140 184 222 221 222 250 267 339 393 564 506 341 142 193 112 53 63 85 0 0
17 198 341 478 508 317 98 0 14 35 57 48 65 36 15 12 16 72 84 65 169 84 75 68 89 68 65 98 186 288 319 303 302 211 42 119 32 37 16 7 7 1 24
51 192 256 345 404 422 238 110 48 44 65 51 62 79 55 13 29 89 166 208 161 79 34 40 36 30 28 43 84 165 215 135 51 0 20 24 46 24 1 11 0 0 0
34 224 303 306 345 405 340 171 95 62 48 52 71 72 69 85 247 181 151 69 86 72 52 40 29 22 34 7 60 90 109 31 4 2 12 21 40 25 20 24 23 40 11
5 153 359 364 332 340 391 259 151 118 47 59 63 46 76 70 85 56 43 10 11 17 25 27 12 5 0 0 2 5 30 5 8 27 32 25 27 34 50 21 47 43 10
0 18 267 483 428 387 360 271 225 151 170 164 171 175 122 10 5 2 5 0 0 2 19 14 10 17 11 31 59 50 21 11 29 39 25 4 29 20 31 35 70 35 2
3 4 20 291 513 414 441 303 240 172 153 184 203 177 174 161 158 3 13 21 3 4 14 18 38 89 145 50 43 60 117 77 94 80 77 79 48 101 45 76 25 19 31
17 0 10 24 298 496 381 400 275 192 128 120 125 122 105 105 134 138 100 87 51 31 29 98 92 48 47 149 183 110 79 87 102 88 65 110 91 70 64 86 45 17 1
0 1 1 0 7 214 358 416 295 183 125 107 86 62 58 58 75 135 123 87 88 80 46 34 42 176 240 283 39 52 55 74 138 129 50 99 72 80 110 13 10 15 0
0 0 0 0 0 22 172 259 314 248 160 109 95 71 63 72 78 139 183 163 147 132 119 101 146 269 170 49 0 0 10 100 96 35 31 68 50 8 8 7 5 8 1
0 0 0 0 0 0 1 84 215 240 205 201 147 68 70 94 142 212 246 174 123 145 177 176 266 109 68 37 4 12 11 18 21 7 12 18 0 10 8 3 1 4 1
0 0 0 7 18 47 28 67 105 99 35 47 62 78 134 200 216 250 232 230 233 189 138 125 89 45 11 18 36 22 7 15 8 2 5 3 3 5 1 1 0 0 0
0 0 0 3 2 16 29 20 0 7 34 60 108 187 263 230 271 242 164 123 103 66 64 6 9 13 17 11 18 4 5 1 1 0 1 0 0 0 0 0 0 0 0
0 0 4 0 0 0 5 25 22 72 97 149 169 192 216 143 111 85 49 15 5 6 3 10 7 15 7 3 1 0 0 4 0 0 0 0 0 0 0 0 0 0 0
0 10 0 0 0 0 0 18 58 105 159 195 206 146 77 40 10 1 0 0 1 0 6 4 7 4 2 0 0 0 0 0 0 0 0 0 0 0 0 0 0 0 0
0 5 13 10 6 6 16 49 106 118 99 121 71 15 2 0 0 0 0 0 0 0 0 0 0 0 0 0 0 0 0 0 0 0 0 0 0 0 0 0 0 0 0
36 0 42 56 58 66 62 96 92 61 34 4 0 0 0 0 0 0 0 0 0 0 0 0 0 2 0 0 0 0 0 0 0 0 0 0 0 0 0 0 0 0 0

GFSMW_con_mucape_090.txt.gz
CAPE
85 372 476 286 205 67 0 0 1 15 4 2 4 0 0 0 0 4 17 7 14 2 5 16 56 96 104 52 22 52 57 0 0 0 0 0 1 0 0 0 0 0 0
35 351 587 270 271 62 0 1 3 0 0 1 0 0 0 0 0 3 7 6 3 3 2 2 0 43 11 3 28 6 0 0 0 0 2 0 0 0 0 0 0 0 0
45 366 631 340 319 62 1 3 4 5 0 0 0 0 0 0 1 9 1 3 4 2 0 0 0 0 0 0 0 0 0 0 0 7 29 41 10 7 5 6 0 0 0
47 365 641 437 219 121 1 16 5 6 0 0 0 0 0 0 5 2 7 0 0 5 4 4 9 0 0 19 2 39 5 23 0 2 34 35 52 52 18 4 8 0 0
0 408 658 594 217 101 3 3 8 4 0 1 0 2 0 7 3 4 0 0 0 0 0 85 71 54 18 31 32 85 165 91 87 15 18 0 18 36 53 17 0 0 0
0 395 766 642 406 212 46 7 6 4 0 0 0 1 2 0 0 0 2 0 0 0 13 38 40 39 44 69 123 106 160 81 72 133 149 86 56 31 27 19 20 10 0
3 81 883 632 469 362 196 14 4 6 0 0 0 4 2 0 0 0 4 7 0 0 70 49 19 45 80 75 175 160 96 110 157 182 129 130 108 119 72 25 17 62 60
7 88 836 713 595 456 190 0 5 6 3 0 2 0 1 0 0 0 2 4 1 0 17 26 46 36 74 116 151 182 211 204 172 190 222 169 184 128 116 97 84 78 93
0 0 731 827 617 519 216 15 4 9 2 0 0 0 0 0 0 0 2 6 6 0 0 15 42 60 97 125 143 125 176 184 250 267 276 276 206 220 197 167 162 126 39
1 3 310 945 680 605 300 20 3 6 5 4 2 2 0 0 5 0 0 8 13 6 0 3 29 32 41 106 118 131 142 208 247 301 350 235 204 216 216 143 167 119 68
1 30 205 985 731 701 380 54 0 5 3 4 17 4 0 0 0 0 0 1 1 8 10 19 14 26 35 55 126 156 157 208 206 243 168 271 270 247 152 164 126 93 64
26 32 241 1028 921 685 414 148 22 7 11 3 1 8 4 22 13 0 0 0 0 0 1 4 6 2 42 44 52 116 146 122 146 183 177 188 218 177 175 187 141 64 44
148 94 289 851 1006 720 553 219 69 33 38 12 11 34 18 23 21 10 10 2 0 0 0 0 0 9 31 40 69 103 118 122 161 149 153 161 149 149 147 129 95 54 24
9 187 361 591 946 899 662 493 217 64 42 128 19 21 16 31 8 54 70 39 0 8 0 0 2 2 36 64 77 99 98 112 124 130 131 143 134 135 126 98 70 44 66
1 31 279 492 700 915 820 709 374 147 75 131 196 98 26 49 7 21 47 144 116 26 12 15 11 23 43 92 102 121 120 98 95 110 121 110 118 118 79 43 53 63 34
7 11 0 172 566 715 965 878 625 443 171 137 180 241 317 220 85 70 96 75 120 120 81 64 67 52 83 102 99 101 121 113 86 72 50 49 52 75 106 78 79 77 54
9 16 0 1 118 659 733 947 878 623 482 239 181 205 227 275 280 250 248 174 89 80 83 100 109 110 120 82 76 84 56 38 29 42 72 104 100 97 100 103 82 23 43
22 5 5 5 1 2 595 728 941 835 613 494 318 262 204 261 202 202 211 224 204 138 102 99 127 113 86 68 69 61 84 97 83 81 111 127 87 85 47 47 4 13 30
57 11 46 29 9 0 1 606 695 829 807 636 525 394 219 176 165 170 181 175 167 199 197 129 103 77 53 28 12 25 49 62 148 124 157 116 123 41 9 16 35 8 44
9 22 29 6 10 7 0 0 608 678 719 796 624 471 366 249 195 129 114 151 131 148 142 135 117 90 47 57 70 84 70 162 112 90 85 78 31 8 12 7 12 17 3
24 0 0 0 0 0 0 34 65 666 578 569 564 522 554 410 274 230 189 127 124 180 185 167 168 96 97 89 112 94 130 135 85 77 103 43 14 18 11 2 0 0 0
38 0 0 0 0 0 0 20 38 404 510 500 408 383 360 369 280 251 234 267 252 280 267 151 175 213 146 92 159 208 251 136 106 55 7 13 13 7 2 0 0 1 0
0 0 0 0 0 0 0 0 24 134 334 505 463 323 289 257 237 230 236 285 240 478 326 369 252 90 195 201 240 187 87 61 32 8 9 1 0 0 0 0 0 0 0
0 0 0 0 0 0 0 0 0 24 51 120 306 166 190 199 188 106 82 54 37 78 92 79 122 87 78 85 40 24 7 14 14 0 0 0 0 0 0 0 0 0 0
0 0 0 0 0 1 6 1 0 0 0 0 3 47 117 181 88 17 12 25 65 108 203 46 9 0 2 12 1 6 3 0 0 0 0 0 0 0 0 0 0 0 0
24 3 10 2 0 27 1 3 26 15 21 55 25 1 1 2 5 8 17 55 114 89 0 0 0 0 0 0 0 0 0 0 0 0 0 0 0 0 0 0 0 0 0

GFSMW_con_mucape_093.txt.gz
CAPE
0 104 210 194 240 214 92 0 2 4 1 0 0 8 7 8 0 0 0 0 13 17 37 11 1 40 25 19 8 0 0 0 0 4 1 0 0 0 4 0 0 0 0
1 101 202 208 242 203 64 0 1 5 5 0 5 0 0 0 0 0 0 8 18 9 16 2 17 0 62 57 11 0 0 0 0 0 0 0 0 0 0 0 0 0 0
3 149 180 168 208 167 55 10 0 12 2 1 0 0 0 0 0 0 0 10 10 38 23 3 3 53 76 61 2 0 7 0 0 0 0 0 0 0 0 0 0 0 0
31 180 172 127 200 177 56 20 0 3 6 0 0 0 0 0 0 0 3 15 13 12 5 2 7 4 78 21 0 16 0 0 0 0 0 11 19 0 0 0 0 0 0
71 168 184 154 229 181 40 31 0 2 3 4 0 0 0 0 1 1 0 9 5 3 3 2 1 0 0 0 8 0 0 0 0 0 0 6 32 27 36 1 0 0 0
85 246 249 229 229 215 35 1 0 3 4 4 0 0 0 0 2 10 15 3 0 7 10 3 3 4 0 0 0 2 12 9 4 7 0 0 11 20 4 8 7 0 0
40 277 281 299 304 290 20 0 0 17 2 3 0 0 0 3 3 2 6 0 0 0 6 1 1 0 1 30 5 16 58 31 31 20 12 15 4 16 0 0 7 0 0
104 362 390 410 429 355 80 16 0 13 3 4 0 0 0 2 9 0 0 0 1 0 0 0 0 15 9 26 40 31 9 49 41 18 25 69 89 88 85 61 39 18 38
138 447 484 489 545 435 179 56 28 3 2 4 0 0 0 0 0 0 0 6 2 1 0 0 2 2 25 34 56 24 17 38 12 16 35 104 101 102 115 77 51 60 20
127 547 520 557 611 473 236 179 94 0 2 4 3 1 0 2 0 0 0 0 2 12 0 0 0 5 25 40 25 54 36 69 85 110 85 92 148 203 198 185 171 124 76
0 287 576 631 616 549 440 277 105 0 1 5 3 0 0 3 0 0 0 0 0 12 5 0 0 2 5 26 31 26 55 88 73 110 156 182 171 163 191 177 121 101 85
5 23 687 669 659 629 591 350 181 8 4 8 4 4 0 0 0 0 0 0 0 2 10 11 2 0 0 5 30 41 46 60 95 122 146 150 174 187 209 183 125 122 108
33 70 761 726 727 721 665 502 343 41 0 6 5 2 1 2 0 0 0 0 0 0 0 5 4 14 5 9 13 29 40 64 86 99 129 138 148 139 127 160 135 146 132
37 226 908 859 821 781 713 605 500 252 1 0 2 1 2 1 3 0 0 0 0 0 0 0 0 0 1 4 19 20 8 13 21 44 110 136 140 119 140 194 152 156 149
0 107 473 987 887 795 765 760 739 534 115 0 0 1 3 4 3 1 0 0 0 0 0 0 0 0 0 0 1 23 52 70 72 96 122 98 102 124 117 121 113 115 106
0 6 93 469 1035 1005 862 828 792 675 404 191 17 2 0 0 42 11 10 1 0 0 0 0 0 0 0 0 0 0 12 53 99 112 117 113 78 60 59 59 70 53 78
35 5 18 5 91 754 884 838 813 724 661 567 424 108 102 35 0 0 6 51 67 75 45 37 27 11 1 0 0 4 53 81 109 87 88 68 49 35 43 28 30 22 44
29 30 26 10 12 19 201 743 830 839 746 663 581 504 231 231 159 65 30 46 44 62 151 152 154 122 76 60 55 100 121 148 156 122 149 95 70 53 52 32 12 66 15
33 36 31 29 24 12 10 17 550 896 861 795 706 564 421 286 286 261 229 157 68 88 70 112 165 184 111 133 151 169 159 133 119 115 153 95 41 54 21 83 69 1 8
42 32 25 15 8 0 10 2 1 535 799 755 810 618 516 343 283 285 343 343 320 307 245 206 122 138 135 129 151 194 207 168 121 105 86 56 87 44 77 52 7 8 1
15 16 12 2 9 12 2 14 4 12 311 832 671 731 557 431 401 324 343 315 303 334 346 279 190 146 133 152 113 103 84 56 43 35 74 52 52 59 14 30 10 1 11
1 11 3 1 4 7 1 0 5 0 69 449 743 724 653 449 395 361 351 328 300 521 237 465 278 167 252 124 109 82 60 44 55 63 62 43 32 0 1 13 0 0 0
0 0 0 0 0 0 0 1 0 3 22 288 438 584 665 553 525 529 448 405 376 412 294 299 157 119 322 93 183 49 85 42 50 58 18 0 0 0 0 0 0 0 0
0 2 0 0 0 0 0 1 9 0 12 114 241 363 430 425 390 372 403 331 300 224 190 228 190 202 151 20 50 26 33 0 0 0 0 0 0 0 0 0 0 0 0
4 0 0 0 0 0 1 8 31 21 11 3 115 325 287 352 249 235 293 267 113 18 31 49 10 2 9 16 7 0 0 0 0 0 0 0 0 0 0 0 0 0 0
0 0 0 0 0 0 0 0 2 21 14 65 8 0 0 63 157 247 317 50 30 20 0 1 2 0 0 0 0 0 0 0 0 0 0 0 0 0 0 0 0 0 0

GFSMW_con_mucape_096.txt.gz
CAPE
0 0 120 180 202 222 246 246 185 26 0 0 3 4 0 41 100 74 55 67 42 20 24 17 5 7 0 0 0 0 0 0 0 0 0 0 0 0 0 0 0 0 0
0 1 234 199 230 228 196 176 159 19 0 0 1 0 1 20 34 47 57 43 14 24 49 35 21 6 5 0 0 0 0 0 0 0 0 0 10 13 2 0 1 0 0
0 9 282 234 242 221 134 150 130 16 0 0 0 1 5 0 0 0 1 6 23 31 21 50 24 5 6 0 5 3 1 0 0 1 2 0 0 2 6 9 0 0 0
0 28 282 220 203 184 179 194 123 18 0 0 1 0 0 0 0 0 0 0 3 25 54 28 23 2 3 0 40 7 4 0 0 1 2 1 0 0 3 0 0 0 0
0 2 248 202 208 185 190 167 80 14 0 0 1 0 0 0 0 0 5 0 3 11 7 12 20 13 5 0 52 4 5 0 0 0 0 21 34 24 12 18 2 8 0
0 3 133 197 247 194 177 144 44 10 0 0 0 0 0 0 0 0 0 0 1 5 10 20 4 4 4 24 61 24 5 3 0 0 0 25 69 44 41 38 14 4 0
0 10 91 227 260 185 174 144 28 3 0 0 1 0 0 0 0 6 1 3 5 4 2 5 2 2 0 0 15 38 52 2 0 0 0 9 14 24 55 39 24 2 0
2 20 102 240 273 198 185 140 14 2 0 0 0 0 0 0 6 5 3 13 4 3 10 0 0 0 0 9 1 5 33 23 0 10 14 9 7 4 16 19 0 0 24
26 81 144 264 297 239 245 200 18 0 0 0 0 0 0 0 5 3 7 6 3 1 0 12 6 3 2 3 1 1 2 30 38 24 44 45 40 73 33 74 76 60 48
218 156 198 275 315 298 330 262 76 0 2 0 0 0 0 0 0 6 0 0 0 5 0 0 7 1 0 0 5 14 19 14 27 36 40 18 5 40 68 65 65 68 52
222 345 330 356 391 440 454 356 149 8 0 0 0 1 0 0 0 0 0 0 2 0 5 0 0 0 0 6 0 4 18 22 20 29 20 30 30 66 84 76 63 58 67
3 473 414 403 419 510 563 450 286 45 15 1 1 1 1 0 0 0 0 0 0 0 11 0 0 0 3 6 30 27 15 12 5 12 32 36 51 82 81 82 69 86 76
1 38 566 554 498 588 640 538 458 274 39 0 4 7 2 0 0 0 0 0 0 1 2 0 0 0 0 0 0 2 4 14 15 32 25 42 77 74 50 56 65 86 89
0 38 509 637 614 639 664 624 575 437 135 11 1 10 2 2 2 0 4 0 0 0 0 0 0 0 0 0 0 0 0 10 16 21 24 39 65 41 26 64 86 90 106
0 109 615 616 671 692 696 700 682 557 394 130 0 1 2 6 3 3 5 1 0 0 0 0 0 0 0 0 0 0 0 0 2 2 16 23 24 30 33 50 67 108 99
0 0 559 786 772 814 772 709 702 573 558 569 277 8 0 14 2 2 1 3 0 0 0 0 0 0 0 0 0 1 0 7 12 12 18 30 29 34 49 92 126 108 108
3 33 245 622 858 762 593 649 613 516 553 565 436 333 164 1 4 4 2 3 0 0 0 0 0 0 0 0 0 0 3 5 2 20 49 57 37 19 86 106 79 66 81
37 10 26 65 139 197 463 623 640 532 469 450 489 469 346 269 129 0 0 15 41 1 2 0 0 1 3 2 6 3 2 0 0 0 3 5 27 60 97 72 58 41 8
39 35 6 1 9 15 10 21 184 540 592 641 441 450 483 447 352 170 25 5 32 66 26 31 25 42 38 30 41 30 110 46 91 72 50 54 39 85 49 56 32 48 41
62 39 36 3 0 5 25 11 5 99 560 519 627 528 300 351 381 335 192 179 88 26 19 39 91 154 165 184 133 98 123 80 61 63 56 64 99 102 52 67 12 29 11
35 25 24 34 20 15 4 0 3 2 6 136 540 533 438 338 343 355 303 338 277 227 155 123 81 83 121 184 201 159 153 147 139 174 123 128 104 90 65 13 76 13 8
4 12 8 4 2 2 3 0 0 0 0 6 11 81 508 447 323 355 269 365 434 428 411 373 255 165 157 154 176 139 98 86 111 98 70 34 41 34 43 15 5 0 1
18 0 0 0 0 0 0 0 0 0 0 0 0 62 224 487 450 371 310 329 373 458 427 456 366 254 243 286 236 165 208 224 156 45 43 21 25 0 0 0 0 0 0
3 0 0 0 0 0 0 0 0 0 0 0 0 17 147 539 651 530 377 333 312 299 378 282 332 276 227 159 39 87 48 64 58 0 23 0 0 0 0 0 0 0 0
20 0 0 0 0 0 0 0 0 2 0 0 1 0 47 131 195 279 336 352 392 377 346 196 232 142 117 3 0 0 12 0 0 0 0 0 0 0 0 0 0 0 0
40 17 1 0 0 0 0 0 0 0 0 0 0 0 1 6 84 89 129 101 61 200 0 134 32 24 66 3 0 0 0 0 0 0 0 0 0 0 0 0 0 0 0

GFSMW_con_mucape_099.txt.gz
CAPE
0 0 0 0 2 70 173 411 294 123 130 0 0 0 2 3 21 103 53 46 49 49 39 38 31 18 4 0 0 1 0 0 0 0 0 0 0 0 0 0 0 0 0
0 0 0 0 0 59 345 346 187 141 107 1 0 0 0 7 8 52 104 66 49 39 30 38 18 5 0 0 0 0 0 0 0 0 3 0 0 2 0 0 0 0 0
0 0 0 0 13 175 337 263 151 141 81 0 0 0 2 2 0 34 45 56 45 21 29 23 25 8 1 0 0 0 0 0 0 6 1 2 0 2 3 4 9 0 1
0 0 0 1 98 172 274 201 170 117 76 0 0 0 0 0 0 0 14 42 46 41 33 46 51 10 9 9 0 3 20 11 8 14 14 2 9 28 2 11 1 1 9
0 0 0 23 110 142 226 194 161 114 80 0 0 0 0 0 0 0 0 0 6 34 25 28 39 13 1 5 2 19 16 8 22 27 16 20 9 6 0 0 9 7 9
0 0 0 3 104 133 224 214 163 159 70 0 0 0 0 0 0 0 0 0 0 0 38 19 25 5 2 6 8 0 50 56 55 20 13 20 12 0 42 29 10 43 33
0 0 0 2 62 170 219 218 190 179 64 0 0 0 0 0 0 0 0 0 1 0 6 5 4 27 18 6 3 1 38 57 6 0 18 28 40 53 52 45 45 35 8
0 0 0 7 20 89 203 223 230 155 60 0 0 1 0 0 0 0 0 0 0 0 5 8 3 7 22 4 0 0 3 27 0 0 17 3 18 52 24 4 42 52 39
0 0 0 9 39 31 230 236 228 149 40 0 0 0 0 0 0 0 0 11 0 0 0 0 17 18 3 0 0 0 0 0 0 13 0 0 0 18 20 13 20 12 10
4 29 7 7 55 59 256 259 217 157 7 2 0 0 0 0 0 0 6 10 5 0 0 0 0 0 0 0 0 0 1 0 49 38 23 4 28 49 47 30 30 32 60
0 135 63 59 25 84 275 281 213 179 5 2 0 0 0 0 0 0 12 0 1 6 29 23 7 6 9 1 2 2 0 0 20 22 33 35 45 51 24 7 9 37 62
0 0 174 214 68 98 322 284 243 242 27 0 0 0 0 0 0 0 0 0 0 0 13 3 26 17 8 0 5 0 0 3 5 12 21 5 20 34 26 10 22 29 58
0 4 97 266 239 163 317 315 318 336 125 0 0 0 0 0 0 0 0 0 0 0 0 5 0 0 0 1 8 0 0 5 0 1 10 1 10 20 38 30 28 30 36
0 4 16 228 368 248 287 332 403 412 277 103 0 0 0 0 0 0 0 0 0 0 0 0 0 0 0 0 0 0 0 0 0 0 0 11 10 25 31 31 33 37 43
0 0 314 382 391 421 310 315 408 463 337 281 101 0 0 0 0 0 0 0 0 0 0 0 0 0 0 0 0 0 0 0 0 1 7 10 17 36 43 43 43 48 48
0 16 410 574 590 538 502 391 388 390 382 421 301 186 122 0 0 0 1 1 0 5 2 0 0 0 0 0 0 0 0 0 0 0 2 17 38 41 44 36 44 59 53
0 19 206 351 502 474 446 341 304 243 231 268 239 269 215 145 24 2 3 3 2 2 1 0 0 0 0 0 0 0 0 0 0 0 0 0 9 15 29 26 21 29 34
45 1 2 53 246 261 308 427 389 346 274 285 290 173 151 175 155 109 17 8 6 2 4 1 0 0 0 0 0 0 0 0 0 0 3 5 2 2 3 10 17 14 7
55 1 1 4 14 14 19 47 58 258 227 261 355 272 337 182 145 144 94 73 23 5 7 5 2 0 0 0 0 9 13 14 14 18 17 0 0 0 0 0 0 0 0
41 36 29 22 4 1 1 5 0 177 197 219 276 241 220 180 164 182 149 122 158 33 2 6 22 8 1 11 16 29 31 42 26 10 28 33 44 15 46 21 8 13 26
14 35 40 25 14 0 14 13 4 0 2 4 92 179 264 272 240 197 199 134 170 188 185 186 86 30 9 47 36 54 106 114 126 112 89 64 46 2 10 16 14 11 16
16 17 26 22 36 36 41 24 8 6 8 2 3 0 8 73 271 364 170 153 161 142 217 125 258 158 105 55 71 109 61 108 42 63 68 74 52 43 49 40 65 31 0
0 1 2 2 8 3 0 0 0 0 0 0 0 0 0 10 70 169 451 376 226 274 92 79 4 4 25 45 166 189 78 91 138 104 113 66 78 81 24 2 0 0 0
7 5 0 0 0 0 0 0 0 0 0 0 0 0 0 3 0 32 305 258 341 356 298 252 118 6 0 0 0 117 52 97 31 19 0 15 0 2 0 0 0 0 0
13 1 0 0 0 0 0 0 0 0 0 0 0 0 0 0 0 0 4 64 143 117 119 31 47 28 5 1 2 6 2 0 4 8 0 0 0 0 0 0 0 0 0
3 5 12 8 0 0 0 0 0 0 0 0 0 0 0 0 0 0 3 23 12 5 2 19 1 0 0 0 0 0 0 0 0 0 0 0 0 0 0 0 0 0 0

GFSMW_con_mucape_102.txt.gz
CAPE
0 0 0 0 0 0 0 54 111 362 385 214 98 52 28 137 178 310 54 47 38 52 32 42 50 40 7 6 3 68 0 53 2 4 13 19 5 0 0 0 0 0 0
0 0 0 0 0 0 0 17 71 338 316 194 93 27 1 3 10 30 87 51 58 38 49 45 8 4 15 5 2 83 78 45 28 24 8 6 0 0 0 0 0 0 0
0 0 0 0 0 0 0 2 29 314 282 178 62 8 1 3 1 16 39 23 47 36 67 47 31 4 2 0 1 76 95 27 27 36 0 0 0 0 0 0 0 0 0
0 0 0 0 0 0 0 0 21 292 281 122 54 3 0 0 0 0 15 25 32 40 89 21 21 21 18 11 2 18 67 31 9 32 21 0 0 0 0 0 0 0 0
0 0 0 0 0 0 0 0 18 306 204 84 34 2 0 0 0 0 0 47 23 8 22 6 59 18 0 0 0 0 1 34 24 24 22 8 3 3 2 3 4 0 7
0 0 0 0 0 0 0 2 95 284 121 78 33 1 0 0 0 0 0 0 1 11 12 9 43 49 8 3 6 0 0 8 23 44 45 49 18 4 7 0 3 6 23
0 0 0 0 0 0 0 5 129 200 98 69 37 0 0 0 0 0 0 0 0 0 3 7 10 6 27 27 0 0 1 50 55 89 92 54 22 29 26 23 15 17 30
0 0 0 0 0 0 0 0 69 144 102 69 32 0 0 0 0 0 0 0 0 0 0 0 21 11 13 14 2 0 0 5 95 93 94 68 23 52 25 3 69 79 59
0 0 0 15 0 0 0 6 62 136 119 102 31 0 0 0 0 0 0 0 0 0 0 10 10 26 9 1 16 2 1 0 32 43 45 24 2 45 46 48 35 44 0
8 0 0 0 0 0 0 6 27 158 135 131 16 0 0 0 0 0 0 0 0 0 0 5 9 3 6 17 6 3 0 0 0 0 1 0 11 4 21 38 9 6 2
3 0 10 26 42 0 0 2 8 156 139 110 0 0 0 0 0 0 0 0 0 0 0 0 0 0 0 0 3 1 4 0 0 0 0 0 24 28 28 48 56 36 50
0 3 5 0 32 108 15 11 15 174 166 93 0 0 0 0 0 0 0 0 0 0 0 0 0 0 0 0 0 0 0 1 0 0 0 0 29 29 28 58 69 58 36
0 0 110 0 98 224 48 20 76 204 165 120 0 0 0 0 0 0 0 0 0 0 0 0 0 0 10 11 1 1 0 34 0 0 11 6 0 3 26 19 26 41 31
0 3 205 202 167 263 93 22 93 255 202 155 16 0 0 0 0 0 0 0 0 0 0 0 0 0 0 5 1 2 1 2 1 0 14 5 3 0 6 7 0 14 16
0 0 186 305 321 305 319 193 177 265 191 147 96 11 0 0 0 0 0 0 0 0 0 0 0 0 0 3 0 0 2 1 1 0 1 8 2 3 0 2 48 20 33
0 0 8 108 226 266 207 374 293 264 144 182 183 107 34 0 0 0 0 0 0 0 0 0 0 0 0 0 0 0 0 0 0 0 0 0 0 0 5 26 20 29 53
0 0 1 6 26 101 130 194 207 201 149 64 58 74 90 64 37 8 0 3 2 3 4 3 2 0 0 0 0 0 0 0 0 0 0 0 0 7 9 6 3 31 4
49 21 0 0 1 11 78 85 70 74 71 12 24 47 47 48 71 72 56 14 1 1 2 4 5 1 1 0 0 0 0 0 0 0 0 0 0 0 1 3 9 12 14
64 70 26 0 0 0 0 10 112 64 73 54 11 9 31 18 33 34 52 36 24 19 7 1 2 3 4 3 0 3 1 4 0 0 0 0 0 0 8 11 13 14 11
32 61 43 14 1 0 2 9 32 143 216 62 64 66 77 64 36 34 53 98 106 35 31 44 1 4 5 5 3 2 4 7 10 11 7 3 8 11 18 27 29 22 5
25 44 84 73 53 31 27 23 13 11 20 34 68 93 96 106 102 96 114 109 77 157 76 23 51 99 95 29 15 3 7 20 49 29 25 22 33 41 47 59 41 29 35
7 3 15 60 54 22 16 3 0 2 4 1 0 4 2 0 14 39 95 108 154 134 189 103 54 27 16 52 128 80 17 21 35 21 40 27 27 12 24 34 17 22 24
0 0 0 8 54 35 32 11 1 0 0 0 0 0 0 0 0 5 5 24 119 241 268 332 178 153 49 29 13 10 4 2 0 0 0 16 0 0 23 39 2 13 0
0 0 0 0 0 0 0 0 0 0 0 0 0 0 0 0 0 5 7 30 17 20 65 124 110 90 92 40 22 0 10 3 1 0 0 0 0 0 0 0 0 0 0
4 0 0 0 0 0 0 0 0 0 0 0 0 0 0 0 0 0 2 9 24 58 62 56 69 69 47 11 1 0 0 0 0 0 0 0 0 0 0 0 0 0 0
0 0 8 11 1 0 0 0 0 0 0 0 0 0 0 0 0 0 0 1 13 18 53 48 9 6 6 8 1 0 0 0 0 0 0 0 0 0 0 0 0 0 0

GFSMW_con_mucape_108.txt.gz
CAPE
0 0 0 0 0 0 0 0 19 567 774 1003 632 449 299 604 511 708 544 583 379 490 151 191 153 94 35 25 20 2 0 27 2 0 127 131 84 32 22 39 40 44 37
0 0 0 0 0 0 0 0 109 521 763 562 413 501 385 419 359 424 641 306 306 215 27 82 64 38 20 16 11 4 0 2 9 0 0 0 31 58 42 65 46 47 40
0 0 0 0 0 0 0 0 116 404 711 677 467 458 421 287 316 266 355 289 165 69 41 79 44 49 15 26 1 15 4 0 4 82 25 0 0 65 54 44 46 45 42
0 0 0 0 0 0 0 2 67 302 539 628 379 553 522 291 319 203 86 123 59 25 30 31 41 46 25 20 30 1 3 6 0 9 69 104 51 26 33 48 38 40 41
0 0 0 0 0 0 31 41 91 231 200 476 478 585 771 682 546 397 160 19 172 40 29 15 30 14 17 3 1 0 3 5 0 0 0 70 50 75 9 32 23 28 31
0 0 0 0 0 0 0 204 165 135 52 142 561 582 926 702 285 81 34 5 35 20 12 4 14 12 17 2 2 2 1 0 0 0 1 29 114 62 36 43 24 3 7
0 0 0 0 0 0 0 95 159 69 13 23 575 464 822 486 309 154 21 4 3 16 36 1 24 1 6 4 1 3 0 0 3 0 5 101 110 73 84 49 45 23 14
0 0 0 0 0 0 0 13 152 15 5 14 338 289 259 451 225 87 5 7 12 26 3 2 19 2 7 3 1 7 1 0 0 0 0 71 114 99 65 24 194 171 161
0 0 0 0 0 0 0 2 66 5 9 10 255 54 249 296 193 72 3 11 11 19 38 8 6 13 6 5 4 3 5 8 3 1 0 84 81 121 73 98 198 89 76
3 0 0 0 0 0 0 0 85 5 9 1 136 31 338 306 153 33 7 13 0 7 0 34 4 4 11 6 12 6 7 6 2 1 0 0 79 76 157 189 143 155 102
3 5 4 0 0 0 0 3 8 1 2 1 55 143 386 257 140 9 10 0 8 9 0 43 0 0 0 14 10 2 27 7 9 3 0 0 0 0 42 69 81 117 109
14 10 3 0 0 0 2 3 129 8 6 0 100 237 372 234 119 9 0 0 0 0 0 0 0 0 0 4 14 0 10 11 9 0 2 0 0 0 0 81 35 63 103
24 7 0 0 0 0 116 4 159 14 2 3 64 281 346 241 12 8 0 0 0 0 0 0 0 7 8 1 6 8 1 0 1 0 0 2 1 0 0 0 0 87 52
0 0 0 0 0 26 29 92 77 12 4 8 49 325 267 176 7 7 0 0 0 0 0 0 0 0 1 0 1 1 0 7 1 0 5 0 0 0 0 0 0 29 38
0 0 0 0 0 16 230 76 71 139 118 77 193 314 234 3 7 3 0 0 0 0 0 0 0 2 0 0 0 0 0 0 0 0 0 0 0 0 0 1 1 0 43
0 0 0 0 0 12 279 102 109 89 44 130 224 186 101 6 5 6 0 0 0 0 0 0 0 0 0 0 0 1 0 5 3 0 3 0 0 0 0 1 0 0 0
0 0 0 0 0 2 57 75 59 136 45 124 111 157 10 0 0 1 5 0 0 0 0 0 0 0 0 0 0 0 0 0 0 11 6 6 3 1 2 2 2 0 0
0 0 0 0 0 0 25 10 33 51 108 81 91 128 55 2 1 0 0 0 1 7 0 0 1 2 2 1 2 0 0 12 5 4 10 7 7 4 6 6 1 3 4
0 0 0 7 0 0 0 0 28 58 25 23 26 31 60 111 49 31 8 0 0 1 3 8 3 2 2 2 4 0 3 19 0 0 0 0 6 1 0 5 6 4 8
0 0 0 0 0 0 0 12 45 16 0 19 8 6 10 12 8 32 29 46 71 42 17 9 5 3 1 2 3 1 1 3 4 4 1 0 0 0 0 0 0 0 5
0 0 0 2 0 0 0 0 0 0 0 0 0 10 12 2 7 5 19 36 23 66 54 71 31 11 17 23 11 1 0 2 0 0 3 7 14 13 11 9 16 5 0
0 0 0 0 5 1 3 0 2 0 0 0 21 53 12 16 5 10 14 39 102 74 104 110 81 83 82 81 77 92 39 0 0 0 0 0 3 13 0 0 3 0 0
0 0 0 0 0 0 0 18 0 0 0 12 88 47 37 33 26 15 16 1 7 19 20 72 105 130 142 139 150 122 93 97 74 31 17 6 0 0 0 0 0 0 0
0 0 0 0 0 0 0 0 0 0 0 0 0 0 0 0 0 0 3 0 0 5 12 33 55 32 46 53 63 41 19 57 52 25 4 0 0 0 0 0 3 0 0
0 0 0 0 0 0 0 0 0 0 0 0 0 0 0 0 0 0 0 4 3 3 5 6 10 10 13 14 14 8 5 4 6 0 0 0 0 0 0 4 6 0 0
2 0 0 0 0 0 0 0 0 0 0 0 0 0 0 0 0 0 0 0 1 6 14 19 19 6 4 5 2 0 0 0 0 0 0 0 0 0 0 0 0 0 0

GFSMW_con_mucape_111.txt.gz
CAPE
0 0 0 0 0 0 0 0 0 221 1366 1347 1867 2212 1264 1031 1045 1386 1215 1045 917 820 687 898 652 376 28 75 53 33 2 14 22 33 10 49 91 135 62 96 45 49 32
0 0 0 0 0 0 0 0 0 0 258 965 1331 1772 1013 1016 1004 1046 1291 1073 1033 694 607 625 325 48 74 62 43 8 8 23 7 15 0 0 45 114 49 69 65 43 24
0 0 0 0 0 0 0 0 0 4 232 789 1315 1000 819 1048 1000 837 1025 995 898 593 721 539 153 34 48 22 18 17 19 1 9 9 0 0 0 0 88 92 80 102 57
0 0 0 0 0 0 0 2 0 45 213 814 1132 773 739 542 636 785 790 823 804 663 404 314 18 24 108 20 2 14 5 3 1 12 0 2 0 0 0 104 146 98 50
0 0 0 0 0 0 0 0 130 135 222 571 1073 952 616 877 1028 959 895 851 634 371 452 170 4 143 25 26 2 9 14 3 6 0 0 0 0 113 5 0 90 55 31
0 0 0 0 0 0 0 0 83 276 261 563 833 986 697 1233 1132 1210 1031 837 590 571 242 97 15 16 27 20 9 1 13 0 0 3 0 0 0 78 110 53 92 36 73
0 0 0 0 0 0 0 0 0 178 342 483 461 795 759 1301 1426 1380 1020 528 357 321 144 7 7 4 6 30 6 4 0 4 6 1 2 0 31 57 67 110 91 43 38
0 0 1 1 0 0 0 0 0 0 274 305 143 438 592 820 1154 945 624 311 156 179 13 4 4 1 2 4 2 14 5 2 0 0 1 0 20 52 128 94 113 83 82
6 17 10 5 0 0 0 0 0 0 90 266 140 317 447 638 1053 1088 751 252 95 22 40 14 16 17 2 0 0 0 3 3 0 0 0 0 0 0 78 120 123 145 110
22 7 14 5 0 0 0 0 0 0 32 175 68 151 302 719 898 882 393 169 37 20 21 7 0 3 2 5 7 6 0 0 0 1 0 0 0 37 50 63 99 230 170
23 31 12 8 1 0 0 0 0 0 142 71 21 43 278 400 672 567 251 155 7 14 20 36 10 0 0 2 0 9 23 6 3 6 12 0 0 0 4 48 73 24 108
12 4 12 12 7 0 0 0 0 8 51 6 15 56 202 174 508 313 247 7 17 11 10 21 0 0 0 1 15 13 13 6 3 1 0 0 0 0 0 0 2 48 41
2 1 3 0 0 0 0 0 0 8 12 72 7 6 275 505 383 341 236 6 11 4 9 2 13 2 0 1 17 2 7 2 0 0 1 0 0 0 0 0 1 47 17
2 0 0 0 0 0 0 0 0 9 21 23 43 21 421 457 446 343 25 2 2 4 0 0 2 0 0 0 0 0 0 1 0 4 2 6 2 1 0 0 0 0 0
0 0 0 0 0 0 0 0 92 16 16 48 65 181 204 436 405 307 9 2 5 1 0 0 2 2 0 0 0 0 3 7 5 2 0 2 0 0 0 0 0 0 0
0 0 0 0 0 0 0 0 6 14 7 64 70 93 366 393 301 65 4 15 3 0 0 0 0 0 0 0 0 0 0 0 0 0 2 1 0 0 0 0 0 4 0
0 0 0 0 0 0 0 1 39 19 65 172 287 296 196 254 248 6 14 6 6 0 0 0 2 3 13 0 0 0 1 1 0 0 0 1 0 0 0 0 0 6 4
0 0 0 0 0 0 0 0 17 54 130 217 206 178 181 147 2 7 31 19 8 5 0 0 0 5 15 0 0 0 0 0 0 0 0 1 6 5 4 6 5 1 0
0 0 0 0 0 0 0 0 2 40 98 157 190 168 83 0 0 17 12 9 10 7 0 0 2 3 3 2 0 0 0 0 0 1 4 4 12 11 10 6 4 7 8
0 0 0 0 0 0 0 0 0 58 67 52 118 109 59 12 9 0 8 8 15 10 9 15 11 2 2 4 1 3 3 6 2 3 1 2 0 0 6 15 8 0 1
0 0 0 0 0 3 0 0 0 0 0 0 4 17 42 66 88 64 36 33 14 43 44 36 12 4 5 2 0 0 0 0 0 5 9 5 8 10 5 11 10 16 8
0 0 0 0 0 0 0 0 0 0 0 0 0 0 9 0 0 34 31 14 12 54 49 91 88 87 60 38 29 46 28 15 15 8 0 1 1 4 0 0 0 0 0
0 0 0 0 0 0 0 0 0 0 0 0 0 0 0 0 0 0 6 33 61 159 137 152 106 106 111 81 61 86 58 52 45 13 12 6 0 0 0 0 0 0 0
0 0 0 0 0 0 0 0 0 0 0 0 0 0 0 0 9 30 15 13 36 51 30 51 98 84 57 42 58 61 65 63 59 7 6 0 11 0 4 5 0 3 0
4 0 0 0 0 0 0 0 0 1 0 0 0 0 0 0 0 0 2 0 3 3 15 5 28 18 24 15 17 18 14 28 35 9 0 0 1 0 1 0 2 0 0
0 1 3 1 0 0 0 0 0 0 0 0 0 0 0 0 0 0 0 1 2 11 14 14 12 13 5 9 7 11 6 8 6 2 0 0 0 0 0 0 1 0 0

GFSMW_con_mucape_114.txt.gz
CAPE
0 0 0 0 0 0 0 0 110 1684 2088 2201 2444 2297 2233 1812 1416 1322 1223 1089 1114 1582 985 901 957 740 478 317 156 92 97 45 62 61 61 50 11 10 38 35 7 11 18
0 0 0 0 0 0 1 3 0 0 761 1635 1611 2031 2081 1834 1449 1139 1224 1163 1169 1105 1155 874 564 539 298 53 102 18 18 30 17 29 35 18 0 1 32 34 44 13 20
0 0 1 3 12 2 19 0 0 1 43 2 1103 1439 1715 1726 1492 944 681 1286 1078 860 679 535 403 292 220 374 3 37 14 6 2 15 10 0 0 0 1 18 30 15 10
0 0 2 10 13 4 23 0 31 31 34 376 428 1324 1276 1250 1036 812 568 1006 1206 984 730 522 411 241 1 9 68 39 5 2 0 0 15 20 1 0 0 0 29 16 1
0 0 4 8 3 0 4 9 37 112 92 316 546 1184 1022 870 544 369 398 1181 1192 1092 1014 743 359 69 0 0 4 34 1 0 29 9 0 0 0 0 0 0 0 35 16
3 1 2 0 0 8 27 13 0 0 195 328 577 1163 947 733 492 570 456 740 1024 1157 948 717 246 5 2 33 7 12 1 4 3 1 2 17 0 0 1 0 0 0 11
7 0 0 0 13 24 44 21 0 0 0 486 315 999 1034 816 665 787 787 610 1008 1064 955 317 147 6 8 3 21 10 2 6 14 17 1 1 3 16 26 0 0 0 23
38 15 45 24 14 0 0 0 0 0 0 0 324 397 957 806 756 854 1001 833 754 1009 785 264 53 3 6 23 15 10 21 5 10 0 4 1 6 12 20 0 0 0 0
76 64 43 7 0 0 0 0 0 0 0 0 0 341 280 455 501 905 991 1039 735 826 655 115 88 7 6 8 4 8 39 4 0 4 2 3 3 22 14 23 4 0 0
83 29 0 0 0 0 0 0 0 0 0 0 0 123 97 177 357 607 825 1070 739 155 135 59 14 6 29 7 5 7 0 12 6 0 0 0 0 4 2 49 35 1 0
95 7 1 0 0 0 0 0 0 0 0 0 0 74 29 95 259 434 664 840 516 219 139 4 11 22 2 1 0 0 5 3 4 4 2 0 0 0 19 6 16 31 53
7 9 0 0 0 0 0 0 0 0 0 0 42 70 5 12 165 445 770 690 590 177 131 1 3 5 3 5 7 9 4 9 2 0 10 3 0 0 0 0 0 0 28
41 0 0 0 0 0 0 0 0 0 0 5 31 18 19 6 35 361 639 672 243 253 64 27 4 2 7 7 0 9 1 9 6 11 1 2 0 1 0 3 0 0 0
0 0 0 0 0 0 0 0 0 0 0 13 7 10 9 31 2 372 486 620 236 168 24 3 3 3 0 1 5 1 4 5 8 4 2 0 1 0 1 13 17 0 24
0 0 0 0 0 0 0 0 0 0 0 4 8 10 10 5 24 195 404 459 298 46 8 7 1 0 0 0 0 0 0 0 2 1 0 0 4 2 5 11 27 0 2
0 0 0 0 0 0 0 0 0 0 0 16 5 13 15 9 126 247 616 364 288 80 5 7 0 0 0 2 0 0 2 0 3 16 9 2 4 0 0 0 0 9 0
0 0 0 0 0 0 0 0 0 0 0 14 19 47 38 78 180 388 496 416 40 32 4 6 2 4 4 0 0 0 0 0 0 0 0 13 7 13 3 6 2 1 2
0 0 0 0 0 0 0 0 0 0 0 1 14 8 64 111 174 459 547 152 54 20 25 0 2 4 3 0 0 0 0 5 0 0 0 0 0 0 1 1 0 0 0
0 0 0 0 0 0 0 0 0 0 0 15 10 12 73 73 336 160 273 58 58 45 79 11 1 2 1 0 0 0 0 3 1 6 5 0 2 0 5 5 7 5 5
0 0 0 0 0 0 0 0 0 0 0 0 3 35 93 86 153 197 53 63 15 8 34 3 2 0 3 2 0 0 0 0 0 6 0 1 6 1 21 20 14 14 16
0 0 0 0 0 0 0 0 0 0 0 0 0 3 55 52 93 20 14 9 4 27 64 13 7 7 4 2 3 2 4 2 2 8 3 3 11 15 15 13 18 11 21
0 0 0 0 0 0 0 0 0 0 0 0 0 0 1 45 2 2 1 14 4 15 3 3 3 8 14 24 14 5 3 0 0 0 1 0 0 4 1 3 4 4 2
0 0 0 0 0 0 0 0 0 0 0 0 0 0 0 0 1 4 0 0 29 60 59 33 39 53 63 44 51 59 29 7 6 5 8 11 5 12 2 0 0 0 0
2 0 0 0 0 0 0 0 0 0 0 0 0 0 0 0 0 0 0 0 20 44 69 61 63 55 53 11 76 74 46 54 50 7 14 0 4 0 3 0 7 13 3
0 1 0 0 0 0 0 0 0 0 0 0 0 2 22 13 3 0 0 0 0 0 11 18 31 49 6 1 48 48 29 15 50 29 10 14 8 3 1 5 0 1 0
0 0 0 0 0 0 0 0 0 0 0 0 0 0 0 3 8 15 17 9 6 1 2 3 9 9 10 10 6 5 6 7 8 3 1 3 4 3 0 0 0 1 0

GFSMW_con_mucape_117.txt.gz
CAPE
0 0 0 0 0 0 0 69 1998 1866 1961 2135 2089 2148 2000 1760 1574 1490 1785 1643 1437 1354 1514 1573 1305 1261 929 656 555 459 704 220 99 39 54 62 60 62 12 42 40 13 28
0 0 0 0 0 0 0 2 1817 2319 2102 2065 1932 1814 2174 2177 2071 1650 1303 1513 1512 1262 1149 1834 1542 1364 1090 741 409 506 197 324 152 44 21 29 45 44 10 30 18 6 14
0 0 0 0 0 0 0 0 0 1233 2290 2216 2185 2015 1813 2005 2144 1964 1603 1363 1171 1132 980 950 1599 1233 826 443 446 372 201 20 8 33 25 19 0 6 17 15 7 1 30
0 0 0 0 0 0 0 0 0 0 0 160 1635 1862 1873 1982 1945 1835 1667 1368 1121 1225 826 753 1215 1081 661 228 9 65 22 26 20 10 31 0 1 13 4 3 28 0 23
0 0 0 0 0 2 3 15 2 1 0 0 0 914 1251 1321 1546 1786 1718 1645 1480 1135 1243 1170 673 587 494 278 27 3 169 14 15 5 3 12 4 4 0 0 0 1 29
0 2 3 11 0 0 0 0 0 0 0 0 0 799 947 1007 1083 1114 971 780 558 803 1069 1120 1112 977 291 158 38 1 5 18 11 1 2 11 0 9 0 0 0 0 0
6 32 8 0 0 0 0 0 0 0 0 0 0 0 503 864 890 848 671 582 305 367 732 763 1032 973 790 425 23 9 16 6 1 1 25 12 7 2 6 7 0 0 0
24 9 22 7 0 0 0 0 0 0 0 0 0 0 0 343 858 794 553 428 327 440 514 872 812 1056 783 635 3 9 18 14 8 0 23 34 8 5 19 16 1 0 0
84 53 11 5 0 0 0 0 0 0 0 0 0 0 0 0 499 634 447 575 807 784 845 807 989 1112 773 442 62 9 54 6 8 0 9 18 13 3 3 18 53 3 2
34 4 1 11 8 6 0 0 0 0 0 0 0 0 0 0 166 460 302 404 668 1024 967 631 973 857 871 421 7 32 9 7 3 15 4 8 10 5 9 6 8 63 16
0 1 1 2 11 7 0 0 0 0 0 0 0 0 0 0 0 257 136 418 697 877 940 623 485 634 396 169 14 6 10 18 7 0 17 0 0 3 2 0 13 10 34
20 28 16 13 3 0 0 0 0 0 0 0 0 0 1 19 0 32 121 326 593 789 1201 753 268 140 49 28 6 4 19 2 0 4 0 0 0 0 0 0 1 0 0
39 23 9 2 0 0 0 0 0 0 0 0 0 0 0 71 77 48 99 237 497 677 925 373 229 112 1 5 9 1 4 0 2 1 3 8 9 3 0 0 0 0 0
39 9 0 0 0 0 0 0 0 0 0 0 0 0 0 12 77 16 97 209 453 393 692 451 173 36 6 8 5 13 7 8 0 2 6 8 8 18 3 1 0 0 0
0 0 0 0 0 0 0 0 0 0 0 0 0 0 0 6 16 25 49 125 278 436 585 192 123 22 9 8 4 9 2 3 9 22 9 18 13 13 2 2 0 0 0
0 0 0 0 0 0 0 0 0 0 0 0 0 0 7 11 11 14 43 172 312 376 338 160 67 26 5 5 2 3 14 7 0 4 23 16 2 0 0 0 13 13 0
0 0 0 0 0 0 0 0 0 0 0 0 0 0 7 1 17 11 32 81 212 271 345 237 42 9 5 0 0 0 4 7 4 3 1 18 6 4 0 3 17 0 0
0 0 0 0 0 0 0 0 0 0 0 0 0 2 12 11 17 37 41 57 139 177 123 97 57 3 0 0 0 0 4 0 0 0 2 3 10 14 1 2 0 0 0
0 0 0 0 0 0 0 0 0 0 0 0 0 3 1 18 21 31 56 93 106 93 389 38 17 19 16 0 0 0 0 0 0 0 0 0 5 0 0 1 1 2 2
0 0 0 0 0 0 0 0 0 0 0 0 3 6 0 22 20 38 58 91 121 160 35 25 2 6 1 0 0 0 0 0 0 2 1 0 6 13 1 0 0 0 0
0 0 0 0 0 0 0 0 0 0 0 0 0 3 0 0 14 9 44 52 43 194 93 20 23 17 1 1 0 0 0 2 0 2 0 6 0 6 11 14 15 13 11
0 0 0 0 0 0 0 0 0 0 0 0 0 0 0 0 6 13 8 4 71 47 50 67 20 6 19 6 5 3 2 6 3 6 4 4 3 9 16 18 14 15 13
0 0 0 0 0 0 0 0 0 0 0 0 0 0 0 0 0 11 19 22 9 20 42 52 73 37 21 8 2 0 0 1 0 0 0 2 3 5 8 8 4 2 0
0 0 0 0 0 0 0 0 0 0 0 0 0 0 0 0 0 0 9 29 11 34 53 53 41 28 65 99 30 16 17 15 4 5 6 6 5 4 3 9 9 2 12
0 0 0 0 0 0 0 0 0 0 0 0 0 2 3 0 0 0 0 0 0 0 0 48 70 81 76 91 71 47 43 21 0 0 2 2 0 0 2 6 8 5 3
0 0 0 0 0 0 0 0 0 0 0 0 0 0 0 11 16 0 6 0 0 0 0 0 0 0 17 6 12 14 2 0 0 0 0 2 3 1 3 4 3 3 7

GFSMW_con_mucape_123.txt.gz
CAPE
0 0 0 0 0 0 663 1320 1428 1700 1805 1793 1661 1567 1399 1392 1424 1497 1648 1643 1425 1391 1245 1516 1672 1688 1388 1331 1188 1047 956 840 682 405 376 288 187 152 204 48 28 121 40
0 0 0 0 0 0 0 307 1161 1324 1645 1790 1770 1535 1521 1478 1495 1678 1754 1744 1695 1677 1503 1297 1516 1666 1809 1902 1313 1059 1398 1381 909 343 309 23 9 46 41 66 33 137 56
0 0 4 0 0 0 0 0 365 838 1390 1695 1749 1724 1629 1549 1666 1734 1917 1886 1864 1822 1716 1600 1661 1759 1379 1179 909 1198 1217 1292 520 274 36 54 11 9 14 19 25 55 57
0 0 0 0 0 0 154 567 785 1061 1406 1724 1856 1822 1711 1399 1530 1684 2029 1977 1817 1964 1813 1803 1906 1887 1698 1425 901 1180 904 950 875 360 346 72 9 11 12 13 18 31 60
0 0 0 0 0 112 646 970 1226 1527 1701 1946 1980 1821 1461 1113 959 1531 1596 1702 1793 1847 1829 1810 1746 1600 1336 1318 1107 1161 987 1130 701 630 399 106 61 41 25 10 5 38 22
0 0 1 57 291 656 1072 1336 1204 1060 1107 1362 1442 1274 1242 1147 1170 1322 1478 1675 1661 1628 1653 1688 1570 1279 1269 1085 1006 1040 791 758 821 549 507 59 9 31 28 19 17 5 13
0 6 92 139 167 307 481 663 704 735 789 755 552 480 472 315 261 476 980 1373 1476 1537 1348 1345 1419 1266 1028 1049 763 437 646 900 906 552 468 215 10 14 15 22 20 26 18
52 67 95 133 144 88 66 61 52 51 61 44 18 10 3 0 1 14 21 78 434 978 1116 1116 1074 1138 972 970 741 527 451 455 717 730 807 313 28 3 14 55 29 19 5
113 133 100 84 69 45 24 12 3 1 2 0 0 0 0 0 0 0 0 0 4 167 555 718 831 929 833 312 423 648 599 658 491 585 675 167 29 5 10 11 14 26 0
13 37 42 18 12 14 15 3 2 2 3 2 1 0 0 0 0 0 0 0 0 6 90 547 656 516 155 83 171 538 632 403 483 423 504 435 1 3 21 5 18 15 3
0 0 0 2 9 7 4 2 0 0 0 0 3 0 0 0 0 0 0 0 0 0 9 141 504 274 110 210 129 495 422 458 341 467 570 252 4 8 7 1 14 22 7
1 0 2 0 0 0 0 5 19 13 0 0 0 0 0 0 0 0 0 0 0 0 8 67 312 346 147 78 447 481 372 401 491 365 389 2 6 2 4 12 11 17 3
29 17 9 11 13 8 7 1 1 0 0 0 0 0 0 0 0 0 0 0 3 2 6 16 215 296 119 12 371 367 290 471 496 626 422 5 4 0 2 236 17 3 0
65 34 27 33 19 21 0 0 1 0 0 0 0 0 0 0 0 0 0 0 2 5 51 14 214 160 26 38 294 489 392 355 297 279 11 2 4 10 17 11 33 0 9
8 1 0 0 0 0 0 0 0 0 0 0 0 0 0 0 0 0 0 0 1 0 24 36 71 53 18 124 281 418 279 99 70 10 3 6 7 7 1 28 15 5 1
0 0 0 0 0 0 0 0 0 0 0 0 0 0 0 0 0 0 0 0 0 12 32 46 40 38 39 65 312 220 315 56 8 5 2 7 14 7 9 11 16 6 0
0 0 0 0 0 0 0 0 0 0 0 0 0 0 0 0 0 0 0 0 0 7 49 49 12 34 33 31 206 33 75 8 1 1 1 26 8 10 27 14 4 6 1
0 0 0 0 0 0 0 0 0 0 0 0 0 0 0 0 0 0 1 0 1 9 47 61 56 22 59 76 60 71 0 2 0 9 13 9 14 5 2 19 9 7 0
0 0 0 0 0 0 0 0 0 0 0 0 0 0 0 0 0 0 0 3 22 3 18 51 41 43 16 20 9 11 2 0 4 3 11 7 7 11 5 6 5 7 12
0 0 0 0 0 0 0 0 0 0 0 0 0 0 0 0 0 0 0 1 7 7 31 34 35 2 46 29 42 2 0 1 9 15 6 8 3 3 9 9 16 6 7
0 0 0 0 0 0 0 0 0 0 0 0 0 0 0 0 0 0 3 13 15 27 25 32 19 37 31 43 21 6 0 0 6 6 2 1 3 0 0 9 15 16 22
0 0 0 0 0 0 0 0 0 0 0 0 0 0 0 0 0 0 0 11 21 8 5 19 14 31 11 12 14 22 0 0 5 2 0 0 0 0 7 15 0 0 8
0 0 0 0 0 0 0 0 0 0 0 0 0 0 0 0 0 0 0 14 2 10 0 0 0 2 20 16 0 2 0 0 0 0 1 1 7 0 8 0 7 9 2
0 0 0 0 0 0 0 0 0 0 0 0 0 0 0 0 0 0 0 0 12 9 3 0 0 19 0 8 1 0 1 0 0 5 0 0 0 16 8 17 14 6 5
0 0 0 0 0 0 0 0 0 0 0 0 0 0 0 0 0 0 0 0 0 0 3 0 0 5 1 8 36 4 26 11 0 0 4 5 8 8 0 0 0 4 6
0 0 0 0 0 0 0 0 0 0 0 0 0 0 0 0 0 0 0 0 0 0 0 0 0 0 0 0 0 0 2 1 1 14 2 4 1 8 15 4 0 0 0